Mount Holly, NJ

8:28 AM EDT on June 23, 2017 (GMT -0400)
South Jersey Regional

Weather History for KVAY - May, 2013

Change the Weather History Date:

Tuesday, May 14, 2013

  Actual Average (KPNE) Record (KPNE)
Temperature  
Mean Temperature 49 °F -  
Max Temperature 61 °F 69 °F 82 °F (2004)
Min Temperature 37 °F 49 °F 37 °F (2013)
Degree Days  
Heating Degree Days 16    
Moisture  
Dew Point 29 °F    
Average Humidity 48    
Maximum Humidity 82    
Minimum Humidity 25    
Precipitation  
Precipitation 0.00 in - - ()
Sea Level Pressure  
Sea Level Pressure 30.12 in    
Wind  
Wind Speed 4 mph (WNW)    
Max Wind Speed 13 mph    
Max Gust Speed 18 mph    
Visibility 10 miles    
Events      
Averages and records for this station are not official NWS values.
T = Trace of Precipitation, MM = Missing Value Source: NWS Daily Summary

Daily Weather History Graph

Daily Weather History Graph

Search for Another Location

Airport or City:

Trip Planner

Search our weather history database for the weather conditions in past years. The results will help you decide how hot, cold, wet, or windy it might be!

Date:

Astronomy

May. 14, 2013 Rise Set
Actual Time 5:45 AM EDT 8:07 PM EDT
Civil Twilight 5:14 AM EDT 8:37 PM EDT
Nautical Twilight 4:36 AM EDT 9:15 PM EDT
Astronomical Twilight 3:55 AM EDT 9:57 PM EDT
Moon 9:22 AM EDT (5/14) 11:52 PM EDT (5/14)
Length of Visible Light 15h 23m
Length of Day
14h 21m
Waxing Crescent, 19% of the Moon is Illuminated
May 14
Waxing Crescent
May 18
First Quarter
May 25
Full
May 31
Last Quarter
Jun 8
New

Hourly Weather History & Observations

Time (EDT) Temp. Windchill Dew Point Humidity Pressure Visibility Wind Dir Wind Speed Gust Speed Precip Events Conditions
12:54 AM 42.1 °F 40.2 °F 30.9 °F 65% 30.14 in 10.0 mi NW 3.5 mph - N/A   Clear
1:54 AM 42.1 °F 40.2 °F 32.0 °F 67% 30.14 in 10.0 mi NW 3.5 mph - N/A   Clear
2:54 AM 42.1 °F 40.2 °F 32.0 °F 67% 30.14 in 10.0 mi WNW 3.5 mph - N/A   Clear
3:54 AM 41.0 °F - 32.0 °F 70% 30.14 in 10.0 mi Calm Calm - N/A   Clear
4:54 AM 37.0 °F - 32.0 °F 82% 30.14 in 10.0 mi Calm Calm - N/A   Clear
5:54 AM 39.0 °F 36.8 °F 32.0 °F 76% 30.15 in 10.0 mi West 3.5 mph - N/A   Clear
6:54 AM 41.0 °F 39.0 °F 30.9 °F 67% 30.17 in 10.0 mi WNW 3.5 mph - N/A   Clear
7:54 AM 46.0 °F 43.1 °F 30.9 °F 56% 30.17 in 10.0 mi NW 5.8 mph - N/A   Clear
8:54 AM 48.9 °F - 30.0 °F 48% 30.17 in 10.0 mi Variable 5.8 mph - N/A   Clear
9:54 AM 51.1 °F - 28.9 °F 43% 30.17 in 10.0 mi Variable 6.9 mph - N/A   Clear
10:54 AM 53.1 °F - 27.0 °F 37% 30.15 in 10.0 mi NNW 9.2 mph - N/A   Clear
11:54 AM 55.0 °F - 26.1 °F 33% 30.14 in 10.0 mi West 9.2 mph - N/A   Partly Cloudy
12:54 PM 55.9 °F - 26.1 °F 32% 30.13 in 10.0 mi West 8.1 mph 17.3 mph N/A   Clear
1:54 PM 57.9 °F - 26.1 °F 30% 30.12 in 10.0 mi NW 12.7 mph 18.4 mph N/A   Clear
2:54 PM 59.0 °F - 25.0 °F 27% 30.10 in 10.0 mi NW 9.2 mph 18.4 mph N/A   Clear
3:54 PM 61.0 °F - 27.0 °F 27% 30.08 in 10.0 mi NNW 3.5 mph - N/A   Clear
4:54 PM 61.0 °F - 25.0 °F 25% 30.06 in 10.0 mi NW 8.1 mph - N/A   Clear
5:54 PM 61.0 °F - 27.0 °F 27% 30.06 in 10.0 mi WSW 10.4 mph - N/A   Clear
6:54 PM 60.1 °F - 25.0 °F 26% 30.06 in 10.0 mi West 9.2 mph - N/A   Clear
7:54 PM 57.9 °F - 25.0 °F 28% 30.06 in 10.0 mi WSW 3.5 mph - N/A   Clear
8:54 PM 50.0 °F - 32.0 °F 50% 30.06 in 10.0 mi Calm Calm - N/A   Clear
9:54 PM 46.0 °F - 34.0 °F 63% 30.08 in 10.0 mi Calm Calm - N/A   Clear
10:54 PM 48.0 °F - 34.0 °F 58% 30.10 in 10.0 mi Calm Calm - N/A   Clear
11:54 PM 48.9 °F - 34.0 °F 56% 30.09 in 10.0 mi Calm Calm - N/A   Clear